This demonstration page uses our WeatherBlox Daily Observations layout. Learn more.

Left ArrowRight Arrow

34.74481, -87.66753

Hourly Observations for March 9, 2021

Temp ( °F °C ) Dew Point ( °F °C ) Humidity (%) Winds ( mph kmh ) Pressure ( in mb ) Visibility ( mi km ) Precip ( " mm )
12:53 am 00:53 Clear 40 4.4 33 0.6 77 77 Calm 30.42 1030 10 16 0.00 0.00
1:53 am 01:53 Clear 41 5 33 0.6 73 73 Calm 30.41 1030 10 16 0.00 0.00
2:53 am 02:53 Clear 40 4.4 34 1.1 79 79 Calm 30.40 1030 10 16 0.00 0.00
3:53 am 03:53 Clear 40 4.4 33 0.6 77 77 ENE 3 6 30.42 1030 10 16 0.00 0.00
4:53 am 04:53 Clear 39 3.9 32 0 76 76 Calm 30.42 1030 10 16 0.00 0.00
5:53 am 05:53 Clear 39 3.9 32 0 76 76 E 3 6 30.45 1031 10 16 0.00 0.00
6:53 am 06:53 Sunny 42 5.6 33 0.6 71 71 Calm 30.47 1032 10 16 0.00 0.00
7:53 am 07:53 Sunny 51 10.6 34 1.1 52 52 ESE 3 6 30.50 1033 10 16 0.00 0.00
8:53 am 08:53 Sunny 57 13.9 33 0.6 41 41 Calm 30.49 1033 10 16 0.00 0.00
9:53 am 09:53 Sunny 61 16.1 34 1.1 36 36 VRB 3 6 30.48 1032 10 16 0.00 0.00
10:53 am 10:53 Sunny 69 20.6 33 0.6 26 26 WSW 8 13 30.47 1032 10 16 0.00 0.00
11:53 am 11:53 Sunny 69 20.6 26 -3.3 20 20 SSW 10 17 30.45 1031 10 16 0.00 0.00
12:53 pm 12:53 Sunny 72 22.2 28 -2.2 19 19 S 12 19 30.42 1030 10 16 0.00 0.00
1:53 pm 13:53 Sunny 71 21.7 28 -2.2 20 20 S 9 15 30.39 1029 10 16 0.00 0.00
2:53 pm 14:53 Sunny 71 21.7 29 -1.7 21 21 SSW 15 24 30.37 1029 10 16 0.00 0.00
3:53 pm 15:53 Sunny 71 21.7 31 -0.6 23 23 S 9 15 30.35 1028 10 16 0.00 0.00
4:53 pm 16:53 Sunny 70 21.1 32 0 25 25 S 9 15 30.34 1027 10 16 0.00 0.00
5:53 pm 17:53 Sunny 66 18.9 31 -0.6 27 27 S 6 9 30.33 1027 10 16 0.00 0.00
6:53 pm 18:53 Clear 61 16.1 30 -1.1 31 31 S 5 7 30.35 1028 10 16 0.00 0.00
7:53 pm 19:53 Clear 56 13.3 31 -0.6 39 39 SE 5 7 30.34 1028 10 16 0.00 0.00
8:53 pm 20:53 Clear 56 13.3 31 -0.6 39 39 SE 5 7 30.35 1028 10 16 0.00 0.00
9:53 pm 21:53 Clear 53 11.7 34 1.1 48 48 SE 6 9 30.34 1027 10 16 0.00 0.00
10:53 pm 22:53 Clear 53 11.7 33 0.6 47 47 SE 6 9 30.33 1027 9 14 0.00 0.00
11:53 pm 23:53 Clear 52 11.1 33 0.6 49 49 SE 5 7 30.31 1026 8 13 0.00 0.00

Powered by AerisWeather